Wind_Speed
42 42 41 40 40 40 38 36 35 36 36 36 35 34 32 31 28 26 27 29 31 35 43 50 57 58 56 53 52 52 52 52 52 51 50 50 50 49 48 48 47 45 44 42 41 40 38 36 34 33 31 29 28 26 24 23 21 20 18 18 17 17 17 14 13 13 13 14 13 12 12 10 9 8 7 6 6 6 5 5 5 5 5 5 5 4 3 3
42 42 41 40 40 40 38 36 35 37 37 37 35 33 32 30 28 27 30 34 37 42 49 54 57 56 52 50 50 50 51 52 51 50 50 50 49 49 49 48 47 46 44 42 41 40 38 36 34 33 31 30 28 26 24 23 21 19 17 16 15 15 16 16 14 14 14 14 14 13 12 11 10 8 7 6 6 6 6 6 5 6 6 5 5 5 4 3
43 42 41 40 40 40 37 36 36 38 38 37 36 33 32 30 28 30 35 38 43 48 52 54 53 51 49 49 49 49 49 50 50 50 50 50 49 49 49 48 47 46 45 43 41 40 38 36 35 33 32 30 28 26 24 22 20 19 17 16 16 15 16 16 15 13 13 14 14 14 13 12 11 9 8 7 6 6 6 6 6 6 6 6 6 5 4 4
43 42 40 40 40 39 37 36 37 39 39 39 37 34 32 30 30 35 40 43 48 51 52 50 48 46 46 47 47 47 48 49 49 50 51 51 50 49 49 48 47 46 45 44 42 40 39 37 35 33 31 29 27 25 23 22 20 19 18 17 17 16 16 16 15 14 14 14 14 14 13 12 11 10 9 8 7 7 7 7 7 7 7 6 6 5 5 4
43 42 40 40 39 39 37 36 38 40 41 40 38 35 33 32 34 41 45 48 50 51 50 47 44 43 44 45 45 45 47 48 49 49 50 51 51 51 50 49 48 46 45 44 43 41 39 37 35 33 30 28 26 24 23 22 20 19 18 18 18 18 17 16 15 15 14 14 14 14 13 13 12 11 9 8 8 8 8 8 8 8 8 7 6 6 5 5
43 42 40 40 39 38 36 36 39 41 42 41 39 36 34 35 39 46 49 50 51 49 48 45 42 41 41 42 42 44 46 47 49 50 49 51 51 51 50 50 49 48 46 44 42 41 39 37 34 32 30 28 26 24 22 21 19 18 18 18 18 18 17 16 16 16 15 15 15 14 14 13 12 11 10 9 9 9 10 9 9 9 8 8 7 6 5 5
44 42 40 39 39 38 37 37 41 43 43 43 40 38 37 38 44 49 50 51 50 47 45 43 41 40 40 40 40 42 44 45 49 49 49 51 51 50 50 50 49 48 47 45 42 40 38 36 34 32 30 29 27 25 22 20 19 18 18 18 18 18 18 18 18 17 17 16 15 15 15 14 13 12 10 10 10 11 11 10 10 10 9 8 7 6 5 5
44 42 40 38 38 37 37 38 43 45 45 44 42 40 39 42 47 50 50 49 48 45 43 42 41 39 38 38 39 41 43 45 48 49 49 51 51 51 50 49 49 47 46 44 42 40 38 36 34 33 31 29 28 25 23 21 20 19 18 18 18 19 18 18 18 18 18 17 16 17 16 14 13 12 11 11 11 12 12 12 11 10 10 8 7 6 6 5
44 42 40 38 38 37 37 40 44 47 47 46 43 41 42 45 49 50 50 48 46 44 43 42 40 38 37 37 38 40 43 45 47 48 49 50 50 50 50 49 48 47 45 44 42 40 38 36 34 33 31 29 27 25 24 22 21 20 19 19 19 19 18 18 18 18 19 18 18 18 17 15 14 13 11 11 12 13 13 12 12 11 10 9 8 7 6 6
45 43 41 39 38 37 37 41 46 48 48 47 45 43 45 48 50 49 49 47 45 44 42 41 40 38 36 36 37 40 43 45 46 47 48 49 49 49 49 48 47 46 45 44 42 40 38 37 35 34 32 29 27 25 24 23 22 21 21 20 20 19 18 19 19 19 19 19 18 18 17 16 15 13 12 12 13 13 13 13 13 12 11 10 8 7 7 7
47 44 42 39 38 37 37 42 47 50 49 49 46 44 47 50 50 49 48 46 45 44 42 41 39 38 36 36 37 38 43 45 45 47 48 49 49 49 49 48 47 46 45 44 42 41 39 38 36 34 32 30 28 26 24 24 23 22 22 21 22 21 21 21 20 20 19 19 19 18 18 16 15 14 13 13 15 13 13 13 13 13 12 10 9 8 8 8
48 45 42 39 38 37 37 42 48 51 51 50 48 46 48 51 50 48 47 45 44 43 43 41 39 37 36 36 37 39 42 44 44 46 47 48 48 48 48 48 47 46 45 44 43 41 39 38 36 34 33 31 29 28 26 25 24 23 23 23 23 23 22 22 21 20 20 20 20 20 18 17 16 15 14 15 15 14 14 14 13 13 12 11 10 10 10 9
50 46 43 40 38 37 37 41 48 51 52 51 49 47 49 51 50 48 47 45 44 44 43 42 40 37 35 36 38 40 41 42 44 45 46 46 46 47 47 46 46 46 45 45 43 42 40 38 37 35 33 32 31 30 27 26 25 24 24 24 23 22 22 22 22 22 21 21 21 21 19 18 17 16 16 17 16 15 15 15 14 13 12 11 11 11 11 10
52 48 44 41 38 38 37 40 47 51 52 52 51 49 50 52 51 49 47 46 45 45 44 43 41 39 37 37 39 40 40 41 42 44 45 45 45 45 45 45 45 45 45 44 43 42 40 39 37 36 34 33 31 30 28 27 26 26 25 24 23 22 21 22 23 23 23 22 22 22 20 20 18 16 18 18 17 18 17 16 15 14 13 12 12 12 12 11
53 50 47 43 40 38 38 40 45 50 53 53 52 51 50 51 52 50 48 48 46 46 45 44 43 41 38 38 39 39 40 40 40 41 43 44 44 44 44 44 44 44 44 44 43 42 40 39 38 36 35 33 32 30 29 28 27 26 26 24 23 22 22 23 24 24 24 23 23 22 21 21 18 18 20 20 19 19 18 17 16 15 15 13 13 13 13 12
54 52 49 45 41 40 39 40 44 49 53 54 53 52 51 51 52 51 50 49 48 47 46 45 44 43 41 40 40 39 39 40 39 39 41 42 42 43 43 44 44 44 43 43 42 41 40 39 38 37 35 34 33 31 30 29 28 27 26 25 23 23 24 24 25 24 25 24 24 23 23 22 20 20 21 20 20 19 18 18 17 17 15 14 14 14 13 12
56 53 51 46 43 41 40 41 43 48 52 55 54 53 52 52 51 51 50 50 50 49 47 46 45 44 43 42 41 40 39 39 38 38 39 40 41 42 43 43 43 43 43 43 42 41 40 39 38 37 35 34 33 33 31 29 28 26 25 25 24 24 25 26 26 25 25 25 25 24 24 23 22 22 22 21 21 20 19 18 17 17 16 15 15 15 14 13
57 55 52 48 45 42 42 41 43 47 51 55 55 53 53 54 52 51 51 50 50 50 50 48 47 46 46 44 43 42 39 39 39 39 38 39 40 41 42 42 43 43 42 42 42 41 40 39 38 37 36 35 34 32 30 28 26 26 26 25 25 26 26 26 26 26 26 25 25 25 24 24 23 22 23 22 21 20 19 19 18 17 17 17 17 16 15 13
58 57 54 50 47 45 43 43 43 46 50 54 56 55 54 55 54 51 51 50 51 51 51 50 49 48 47 45 45 43 41 39 39 39 39 39 39 40 41 42 42 42 42 42 41 41 40 39 38 37 35 34 32 31 30 29 28 28 28 28 28 27 27 27 27 27 27 27 26 26 25 26 24 23 23 23 22 21 20 19 18 18 19 19 18 17 16 14
59 57 55 52 49 47 45 45 45 46 48 53 56 56 55 55 55 53 51 50 50 51 51 50 50 49 48 45 44 44 42 40 39 39 39 39 39 40 40 41 41 42 42 41 41 40 40 39 37 35 33 33 33 33 32 31 30 30 30 29 29 28 28 28 28 28 28 28 27 27 27 27 25 24 24 24 22 21 20 20 19 19 20 19 19 18 17 16
59 58 56 53 51 49 48 47 46 47 48 51 56 57 56 54 55 53 51 50 50 51 52 51 52 51 49 46 44 44 43 41 40 39 39 39 39 40 40 41 41 40 41 41 41 40 40 39 36 34 35 35 36 35 34 32 31 31 30 29 29 29 29 29 29 29 29 29 28 29 28 27 26 25 25 25 22 21 21 21 21 21 21 20 19 18 18 19
59 59 57 55 53 51 50 49 49 49 49 50 54 57 55 53 54 54 52 51 51 52 53 53 54 54 51 48 46 45 44 42 41 39 39 39 39 39 39 40 40 40 40 40 40 40 40 38 36 36 37 37 37 36 34 33 32 31 30 30 30 30 30 30 31 31 31 31 30 30 29 27 27 27 26 25 23 22 23 23 21 22 21 20 20 20 20 20
61 60 58 57 55 53 52 51 51 50 50 49 52 56 56 53 55 56 55 54 53 53 53 53 54 55 53 50 47 46 44 43 41 40 39 39 39 39 39 38 39 39 39 39 39 38 37 37 37 37 37 37 36 36 35 33 32 32 31 31 31 31 31 32 32 32 32 32 31 31 30 28 28 28 26 25 23 22 24 23 22 23 21 21 22 22 22 22
61 61 60 58 57 56 54 53 52 52 51 50 50 53 55 54 54 57 58 57 56 55 54 54 54 54 54 52 49 47 45 43 42 41 40 39 38 38 38 38 39 39 39 39 39 38 37 37 38 38 38 38 38 37 36 34 33 32 32 31 31 31 32 32 33 33 33 33 32 32 31 29 28 28 27 26 25 23 25 25 24 24 23 23 23 23 23 24
62 61 60 59 58 57 55 53 53 53 52 51 50 52 55 55 55 57 59 60 59 58 56 55 55 54 54 53 50 48 46 44 43 42 41 40 39 38 38 38 38 38 38 38 39 40 40 39 39 39 40 40 39 38 37 35 34 33 32 32 32 32 33 33 33 34 34 34 33 32 32 30 29 29 28 27 26 25 26 26 25 24 24 24 24 25 26 26
63 62 60 59 58 57 55 54 53 53 53 52 51 51 53 55 56 57 60 61 62 60 58 57 57 56 55 54 52 50 48 46 44 42 42 42 41 40 39 39 38 39 39 39 40 40 41 41 41 41 42 41 40 39 38 36 35 34 33 33 33 33 34 34 34 35 35 35 34 33 34 32 29 29 29 28 28 28 28 27 25 25 25 26 26 26 27 27
63 63 61 60 59 57 55 54 53 54 54 54 53 51 53 55 57 58 59 63 65 62 60 59 58 57 56 55 54 52 50 47 45 44 43 42 42 41 41 40 40 40 40 41 42 41 41 42 42 43 43 42 42 40 38 36 35 34 34 34 35 35 35 35 35 36 36 35 35 34 35 33 29 28 29 29 29 29 29 28 27 26 27 27 26 26 27 29
61 62 61 60 60 59 56 55 54 53 54 55 54 53 53 55 57 57 59 64 66 63 62 61 59 58 57 57 56 54 52 48 46 46 44 43 42 42 41 40 40 41 41 40 40 40 41 42 43 43 42 42 41 40 38 37 36 35 35 35 36 36 36 36 36 36 36 36 36 35 35 35 30 27 28 30 30 30 29 29 29 28 27 27 27 28 29 31
58 60 61 60 61 60 58 55 54 54 55 57 56 54 55 56 57 57 59 65 66 64 64 63 61 61 59 58 57 55 53 50 48 47 44 44 43 42 42 41 41 41 41 41 40 40 41 42 42 43 43 42 41 40 39 37 37 36 35 36 36 37 37 36 36 36 36 37 36 35 35 36 32 27 28 30 30 29 29 29 30 29 28 29 29 30 31 32
56 58 60 60 60 60 59 57 55 55 56 57 58 56 57 58 58 58 61 66 65 63 64 64 63 62 61 60 59 57 55 53 50 48 47 46 44 43 43 42 42 41 41 41 41 41 41 42 43 43 43 43 42 42 40 39 38 37 36 36 35 36 36 36 36 36 37 37 37 36 34 36 35 28 27 29 29 29 30 30 30 29 30 31 31 32 33 33
56 56 58 60 59 59 59 58 57 56 57 58 59 59 59 60 59 61 64 65 64 63 64 64 64 63 62 61 60 59 57 55 53 52 50 48 47 46 45 45 44 43 43 43 43 43 42 43 44 44 44 44 43 42 41 40 39 38 37 36 35 35 35 36 36 36 37 38 37 36 34 37 38 31 27 29 30 30 30 30 30 31 32 33 34 34 35 35
58 57 58 60 59 58 58 58 57 57 58 58 60 61 61 62 63 64 65 64 64 64 64 63 64 64 63 63 62 61 59 57 56 54 52 50 49 47 46 46 45 45 44 44 44 44 43 44 44 44 44 44 43 43 42 40 39 38 37 36 36 35 35 35 36 36 37 37 36 35 35 37 39 33 30 31 30 31 31 31 32 34 35 36 36 37 37 37
57 59 61 62 61 59 58 58 58 58 58 58 60 61 62 64 65 65 66 66 65 64 63 63 64 64 64 65 64 63 61 59 58 56 54 53 51 49 48 47 46 45 44 43 43 43 43 43 43 43 43 43 43 42 41 40 38 38 37 36 36 36 36 36 36 36 36 36 36 35 34 37 38 34 32 32 30 30 31 32 34 35 35 36 36 37 37 37
54 59 63 63 61 60 59 59 59 59 59 59 60 62 64 66 65 64 65 67 66 64 63 64 65 65 65 66 66 65 64 62 61 59 57 55 54 52 50 49 48 47 45 44 44 43 42 42 42 42 42 41 41 41 40 38 38 38 38 38 38 37 38 37 36 36 35 35 35 34 34 36 36 34 33 31 29 29 31 33 34 35 35 35 34 35 36 36
53 58 62 62 61 60 59 60 59 59 60 60 61 63 66 66 65 64 66 66 66 66 64 64 66 66 67 67 67 66 65 64 63 62 60 57 55 52 50 49 49 49 48 47 46 45 44 42 41 41 41 40 40 40 39 39 40 40 39 39 39 38 38 38 37 36 35 35 35 34 34 34 33 33 32 30 29 29 30 32 32 33 34 33 33 34 35 36
53 56 59 60 60 60 60 60 60 60 61 61 63 64 64 65 66 65 66 65 65 66 65 64 66 67 68 68 68 68 66 65 64 63 61 59 57 54 52 50 49 49 49 47 47 46 45 43 42 42 41 41 40 40 39 40 40 40 39 39 38 38 38 38 38 37 36 37 36 34 34 32 31 32 31 30 30 30 30 30 31 32 32 33 33 34 35 36
55 57 58 59 59 60 60 60 61 61 61 62 64 63 62 66 68 66 65 64 64 65 65 64 65 66 68 69 69 68 67 66 65 64 62 60 59 57 54 53 52 51 50 49 48 47 46 45 44 43 43 43 42 41 41 40 40 40 40 39 39 39 39 38 39 38 38 38 37 35 34 33 32 32 31 30 31 32 31 31 31 32 32 33 34 35 36 37
55 57 58 59 60 60 59 59 60 61 62 63 63 62 63 66 68 66 65 65 64 64 64 64 64 64 66 67 68 68 68 68 67 65 64 62 61 58 56 55 54 53 52 51 51 50 49 48 47 46 46 45 44 44 44 43 42 42 41 40 40 40 39 38 39 38 38 38 37 36 36 35 34 33 31 31 32 33 33 33 34 34 34 35 36 36 37 38
52 56 59 60 61 61 61 60 60 60 62 62 61 61 63 65 66 66 66 65 64 64 63 63 64 63 63 64 65 67 68 68 67 66 65 64 62 60 58 57 56 55 54 53 52 52 51 51 50 49 48 47 47 46 45 44 43 42 42 41 40 39 38 38 38 38 38 39 39 39 40 38 35 33 32 32 32 33 34 35 35 37 38 38 39 39 39 39
50 53 57 59 60 61 61 61 61 61 61 60 59 59 60 62 65 65 65 65 64 64 63 62 63 63 63 63 63 64 65 65 66 66 66 65 64 62 60 58 57 56 56 55 55 54 53 53 52 52 51 50 49 47 46 44 43 43 42 41 40 39 39 39 39 40 40 41 42 43 44 40 35 33 33 32 32 33 35 36 37 39 40 42 42 42 41 42
49 51 54 56 57 58 59 60 60 59 58 57 57 58 58 60 63 64 65 65 64 64 63 62 61 62 62 62 62 62 63 64 64 65 66 65 64 63 60 59 58 57 57 58 57 55 55 55 54 54 53 51 49 48 47 46 45 44 44 43 42 41 42 43 43 43 43 45 45 46 46 41 36 34 34 34 34 35 36 38 39 40 41 42 43 43 43 44
49 51 52 53 55 56 57 58 57 55 55 54 54 55 55 57 60 62 64 65 65 64 63 62 61 61 61 62 61 61 61 62 63 64 65 65 64 63 61 60 59 58 58 58 56 55 55 55 55 55 54 52 51 50 49 48 47 47 46 45 45 46 46 47 48 47 47 48 47 47 48 43 38 36 36 37 38 39 40 42 42 42 42 43 44 44 44 44
49 51 51 51 53 56 57 57 56 54 53 52 52 52 52 53 57 60 61 63 64 64 64 63 62 61 61 61 62 62 61 61 62 62 63 63 63 62 62 61 60 59 58 57 57 56 56 56 56 56 55 54 54 53 52 51 51 50 49 48 49 50 50 51 51 50 50 50 48 49 49 45 41 40 39 40 43 44 44 44 44 44 44 45 46 46 46 46
50 50 51 50 52 55 57 57 55 53 52 52 52 52 51 51 53 55 58 60 61 62 63 63 63 62 61 61 61 61 62 62 62 61 61 63 62 61 61 61 60 59 59 58 58 57 57 58 58 58 58 57 57 56 56 55 54 53 52 52 52 53 53 53 52 52 53 51 49 51 51 47 44 44 44 44 46 47 47 46 46 47 48 48 49 50 50 50
52 51 51 50 51 53 56 56 56 54 53 53 53 52 52 52 51 52 53 55 57 59 61 62 63 62 62 61 60 60 61 62 62 61 61 62 63 62 61 61 60 59 59 58 58 57 56 58 58 59 60 61 60 59 56 54 54 55 54 53 54 53 54 53 52 54 54 52 52 55 53 48 47 48 48 48 48 48 48 48 49 50 51 51 52 53 55 55
56 54 53 53 53 53 53 53 55 55 53 53 55 55 54 53 52 51 52 52 53 54 57 59 61 62 61 62 62 61 61 61 61 62 61 61 61 61 61 61 60 58 58 58 58 58 58 59 60 61 61 61 59 57 54 52 52 52 52 51 51 51 51 51 53 55 55 53 55 56 54 51 50 50 52 52 51 51 51 51 53 53 54 55 56 56 57 56
61 58 56 56 56 55 53 52 52 53 51 51 53 54 54 55 55 54 54 54 53 52 53 56 58 60 61 61 61 61 61 61 61 62 61 61 61 61 60 60 60 59 58 58 58 58 59 61 62 62 63 62 59 58 57 56 54 54 53 53 53 52 52 54 56 56 55 57 59 56 54 55 53 52 54 54 54 55 55 55 56 57 59 59 58 57 58 58
63 62 61 60 58 57 56 53 52 52 52 52 53 53 53 54 54 54 54 54 53 53 53 53 54 56 58 59 60 60 60 61 62 62 61 61 61 61 60 60 60 60 59 58 59 60 60 61 62 62 62 61 60 60 60 59 59 58 58 59 59 59 59 60 60 58 58 61 61 56 57 59 55 53 55 56 56 58 58 59 60 61 61 60 58 59 60 61
62 64 66 65 62 60 59 57 56 56 55 55 55 54 55 54 53 52 53 54 54 53 53 53 52 52 54 56 58 59 59 60 61 62 62 62 62 61 61 60 60 60 59 58 58 59 61 62 62 62 63 62 62 61 61 61 61 61 60 60 60 61 63 63 61 60 61 64 63 59 62 63 57 55 58 58 58 59 60 61 62 62 61 61 61 63 63 64
62 63 66 68 67 65 63 62 62 61 60 59 58 57 57 56 55 54 54 54 54 53 52 50 51 52 53 53 55 57 58 59 59 60 60 60 60 60 59 59 59 58 58 58 58 58 59 60 61 61 63 64 63 63 63 64 64 64 63 62 61 63 64 64 63 63 65 67 65 64 66 65 59 58 61 60 60 61 61 62 62 62 62 63 64 65 65 65
62 62 63 66 67 66 65 65 65 65 65 64 62 60 59 57 55 55 55 55 55 54 51 49 51 53 54 54 54 54 56 57 59 59 59 59 58 58 58 58 58 57 57 56 56 57 58 59 60 60 62 64 64 63 63 63 63 64 64 63 64 65 66 66 66 65 66 67 66 66 68 65 59 59 61 61 62 63 62 62 62 62 63 64 64 64 65 65
61 62 63 64 65 65 65 65 66 68 68 66 63 61 61 59 58 58 57 56 56 55 52 51 52 54 55 53 50 51 53 55 57 58 59 59 59 59 59 59 58 58 57 56 56 56 57 58 59 59 61 63 63 62 61 61 62 65 67 66 66 66 67 67 67 66 66 66 66 67 68 65 62 64 65 64 64 64 62 62 62 62 62 63 63 64 64 64
Wind_Direction
214 216 218 217 217 218 218 218 215 211 209 209 210 210 212 218 222 224 222 216 207 198 190 184 177 172 169 170 174 176 175 176 177 177 177 178 178 176 174 174 174 175 175 174 173 172 171 170 171 170 169 170 169 169 169 168 170 170 169 169 170 166 162 173 184 183 185 182 176 175 168 162 165 168 166 162 160 164 167 170 170 172 180 177 176 182 176 157
213 215 217 216 216 217 217 216 213 208 206 207 208 207 210 216 219 218 213 205 196 187 182 177 172 169 170 173 176 177 177 177 177 177 179 180 178 176 176 176 175 175 175 175 174 173 171 171 172 171 171 171 171 171 171 170 171 170 170 170 172 173 169 173 183 185 188 187 182 182 175 169 173 175 177 179 178 179 178 179 180 178 182 179 174 174 169 151
212 214 215 215 215 216 216 214 210 205 203 204 205 204 208 213 214 210 202 195 186 179 177 174 171 170 172 175 177 179 179 178 178 179 180 180 179 178 178 177 177 176 175 175 175 173 172 172 173 173 173 174 173 173 172 172 172 171 171 171 173 179 179 179 183 186 190 190 188 188 181 175 179 181 185 192 193 192 188 183 181 182 183 180 172 167 162 147
211 213 214 214 214 215 214 212 207 202 201 202 202 202 206 210 208 201 194 188 180 175 174 172 171 173 175 177 178 181 181 180 181 182 181 180 180 180 179 179 178 177 176 176 175 174 174 175 176 176 176 176 176 175 174 174 175 173 172 174 178 183 186 184 183 186 193 191 191 193 187 181 185 190 193 198 200 195 191 186 180 181 183 182 173 163 155 145
210 211 213 213 213 214 212 209 205 200 200 201 199 200 204 205 201 194 188 182 176 173 172 173 174 176 178 179 180 183 183 182 184 184 182 181 181 181 181 180 178 178 178 177 177 176 176 177 178 178 178 178 179 179 177 177 178 177 176 178 183 188 188 186 185 188 194 193 193 196 193 189 192 197 202 203 199 193 189 185 180 182 183 180 173 163 155 147
209 210 212 212 212 213 210 206 202 199 199 199 197 198 202 200 195 189 183 178 174 172 172 174 177 179 181 182 184 185 184 185 186 185 184 183 183 183 182 181 180 179 179 179 179 178 178 179 179 180 181 181 182 183 182 182 182 181 181 183 188 192 190 189 190 191 194 195 195 198 197 196 198 202 208 206 198 190 186 181 178 181 183 180 173 167 160 153
208 210 211 211 211 212 208 204 199 197 198 198 195 197 200 197 192 187 182 177 174 173 174 177 180 182 184 186 187 187 187 188 187 187 186 185 184 184 183 183 182 181 181 180 181 181 181 181 182 183 184 185 185 185 186 187 188 187 188 189 193 196 194 193 195 193 196 197 196 199 200 198 202 208 211 207 197 188 184 181 179 179 182 182 174 169 166 160
207 209 210 209 210 210 207 202 198 196 197 197 195 196 199 196 190 186 182 178 175 175 176 180 182 184 186 189 190 190 191 190 188 188 188 187 186 185 185 185 184 184 183 183 183 183 183 184 185 186 188 189 188 188 189 191 193 193 195 195 198 201 199 197 199 198 199 199 196 200 201 199 204 211 212 207 197 186 182 181 181 181 183 185 179 174 171 166
206 209 209 208 209 209 206 201 197 196 197 196 195 196 198 194 190 187 183 180 179 178 179 182 185 185 186 189 192 192 192 191 190 190 189 189 189 187 187 187 187 186 186 185 185 186 186 187 189 190 192 193 192 192 192 195 197 199 201 201 202 205 204 202 203 201 202 202 199 200 201 202 208 215 213 206 198 187 182 182 183 184 186 189 187 181 176 168
206 208 208 208 207 208 206 200 196 196 196 196 195 195 197 194 190 189 186 183 182 181 182 183 185 186 187 188 191 192 193 192 192 192 191 191 190 189 189 189 189 189 188 188 188 188 189 191 193 194 195 196 197 198 198 199 201 204 205 204 205 208 208 207 207 204 204 205 205 203 202 203 211 218 213 202 198 190 185 184 185 189 192 194 193 189 180 171
206 207 208 207 206 207 205 200 196 196 196 195 195 196 196 193 191 191 189 187 185 185 184 184 185 186 188 188 190 192 193 193 194 194 193 192 192 191 191 191 191 191 191 191 191 191 192 194 195 196 198 199 201 205 205 205 206 208 209 208 207 209 209 209 211 209 205 206 208 206 203 204 211 218 211 199 199 195 190 189 190 194 197 198 196 192 184 176
206 206 207 206 205 205 204 200 197 197 196 195 195 196 196 193 192 192 191 190 188 188 187 185 185 186 188 189 190 193 192 192 194 195 195 195 194 193 193 192 192 193 193 194 194 193 194 196 198 200 202 202 205 208 209 210 210 211 213 212 212 211 210 210 212 213 210 208 210 209 205 204 210 216 208 200 200 198 195 196 197 200 201 201 198 193 188 183
206 206 206 206 204 203 203 201 198 198 196 195 195 196 197 194 193 193 192 192 191 190 189 187 185 185 187 190 193 193 192 191 193 194 196 197 196 195 194 194 194 195 195 196 196 196 196 198 200 202 204 205 208 209 210 212 213 214 215 216 216 216 214 212 213 214 213 211 211 212 207 206 212 213 207 204 201 198 200 202 203 207 209 206 202 197 193 190
205 206 206 206 204 202 202 201 200 199 197 197 196 197 199 196 193 194 193 193 193 191 190 188 186 184 186 191 193 192 192 192 192 193 195 197 198 197 197 196 196 197 198 198 198 198 199 200 202 204 206 208 211 212 212 213 214 216 217 218 219 219 218 216 217 216 215 214 213 212 208 209 213 210 208 208 205 201 204 206 206 212 215 211 206 201 199 198
205 205 205 205 204 202 201 201 200 200 199 198 197 198 200 198 195 195 195 195 194 193 191 188 186 184 185 191 192 191 192 193 192 193 194 196 198 199 199 199 199 199 200 200 201 201 201 202 204 206 208 210 213 215 215 216 217 218 220 221 221 221 219 218 219 218 217 216 215 213 210 211 213 210 210 210 209 207 207 208 209 214 217 216 210 205 205 205
205 206 205 204 203 202 201 201 201 201 200 200 199 198 201 201 198 196 196 196 194 194 192 189 187 185 186 190 190 189 191 192 193 194 194 196 198 199 200 201 201 201 201 202 203 203 204 205 207 209 210 212 214 217 217 218 220 221 223 223 223 222 221 221 221 220 219 218 217 215 213 214 214 213 213 213 214 213 211 213 215 218 221 219 215 210 211 212
204 206 206 203 202 202 202 201 201 201 201 201 201 200 201 202 202 198 196 196 195 194 192 190 188 186 187 190 189 188 189 191 193 194 195 196 198 199 201 202 203 203 203 204 205 206 207 208 209 211 213 214 216 218 219 221 222 225 227 226 225 224 222 222 222 221 220 219 218 217 216 217 217 217 217 217 217 217 215 218 221 223 225 223 221 217 216 218
204 206 206 204 202 202 203 202 202 202 202 202 202 201 201 203 204 201 198 197 196 194 192 190 189 188 188 189 189 189 189 191 193 195 196 197 198 199 201 202 204 204 205 206 207 208 209 210 211 212 213 216 218 221 222 223 224 226 228 228 227 226 225 224 223 222 221 220 220 219 217 219 221 221 222 221 220 219 219 221 224 226 226 226 225 223 223 225
204 206 206 204 203 202 203 204 203 203 203 203 203 203 202 203 205 204 200 198 197 196 194 190 189 189 189 190 191 191 190 192 194 196 197 198 199 200 201 202 203 205 206 207 208 210 211 211 213 214 216 219 221 223 224 224 224 224 225 226 225 225 225 225 224 223 223 222 221 221 219 221 224 225 225 225 222 222 223 225 227 227 227 226 226 227 228 232
203 206 206 205 204 202 203 205 204 204 204 204 203 204 204 204 206 205 201 199 198 197 195 191 190 190 190 192 193 193 192 193 194 196 198 199 201 201 202 203 203 204 205 206 208 210 211 212 213 216 218 220 220 221 222 223 224 225 226 226 226 225 224 224 224 224 224 223 222 222 221 223 227 228 227 228 225 224 226 228 228 229 230 228 228 230 233 238
203 205 206 205 204 203 203 205 205 204 205 205 204 204 205 205 207 207 203 202 200 198 196 193 192 192 191 193 195 195 194 195 196 197 199 200 202 203 204 205 206 206 206 207 207 208 210 211 212 213 215 217 218 220 221 222 223 225 226 227 226 226 225 225 225 225 225 225 224 223 222 222 227 231 230 230 227 226 228 228 229 231 232 232 232 234 239 243
203 206 206 205 205 204 203 205 206 204 204 205 205 205 205 205 207 208 207 205 202 199 197 195 193 193 193 195 197 196 196 197 198 199 200 201 202 204 205 206 207 208 208 209 209 210 211 211 212 213 215 218 220 222 222 223 224 225 226 226 226 225 225 225 226 226 226 226 225 225 223 221 227 233 234 233 229 227 231 231 232 235 234 234 235 236 241 246
203 206 207 205 205 205 204 205 206 205 204 206 206 206 205 205 206 208 208 207 204 201 199 197 196 195 194 196 198 199 198 199 199 201 202 203 204 205 206 207 209 209 210 210 211 213 214 214 215 217 219 221 223 224 225 225 225 226 226 227 226 225 225 226 226 227 228 228 227 228 226 221 226 234 236 236 232 228 233 233 233 237 236 236 237 238 242 246
204 206 207 206 205 205 205 205 207 205 204 206 207 207 207 207 207 208 209 208 206 203 200 199 199 198 197 197 199 201 201 201 202 202 203 204 206 207 207 209 210 210 211 211 211 212 213 215 216 219 221 223 224 224 225 225 225 226 227 227 227 226 226 226 227 228 229 230 229 230 229 223 225 233 235 237 236 230 233 234 233 236 238 240 242 244 245 248
206 207 208 207 206 206 205 205 207 207 205 206 208 207 207 208 209 209 211 211 208 204 201 200 200 201 200 199 200 202 203 203 204 204 204 205 206 208 209 211 211 211 212 212 213 213 213 215 216 218 220 222 223 224 224 224 225 226 226 228 228 227 227 227 227 229 230 231 231 231 232 226 224 231 233 235 238 234 234 235 235 237 239 241 243 245 247 249
207 208 209 208 207 207 207 206 207 208 206 207 209 208 208 209 210 211 212 214 212 206 202 201 201 202 202 202 202 203 204 205 205 206 206 206 206 207 209 211 212 213 214 214 215 215 216 217 217 218 220 221 222 223 223 224 225 226 226 228 229 228 229 228 228 229 230 231 231 232 235 231 225 229 233 234 237 238 237 238 238 240 242 242 242 244 249 253
208 209 210 209 208 207 208 208 208 208 207 208 209 209 209 210 211 212 213 216 215 208 203 202 203 203 203 204 205 205 206 205 206 207 207 208 208 208 209 210 212 214 215 216 217 217 218 219 219 220 221 222 222 222 223 224 226 227 227 228 229 230 230 230 230 231 231 232 232 232 236 236 228 227 233 235 235 238 239 241 241 241 242 244 246 249 254 258
210 210 210 210 209 208 208 208 208 209 209 209 209 210 210 211 212 213 214 217 217 211 205 203 203 204 205 206 206 207 207 206 208 209 209 209 210 210 211 210 212 215 216 217 218 219 220 220 221 221 222 222 223 223 224 225 227 228 229 230 231 232 232 232 233 233 233 233 232 232 235 239 234 225 230 236 235 237 239 241 242 242 244 246 249 252 255 259
210 211 210 210 210 209 209 208 208 209 210 210 210 212 212 212 212 213 214 217 217 212 207 204 203 204 206 207 208 208 208 207 209 211 211 212 212 212 213 213 214 216 216 216 217 219 220 221 221 221 222 222 223 224 224 225 227 228 229 230 232 233 233 234 234 234 236 235 234 234 235 240 238 225 225 234 236 237 239 241 244 245 247 249 251 253 255 259
211 211 210 210 210 210 209 209 208 209 210 211 211 212 213 213 213 214 215 216 216 213 209 206 205 206 206 208 208 208 209 209 210 211 212 214 214 214 215 215 216 218 217 217 218 218 219 221 221 221 222 222 223 224 225 225 226 227 229 231 232 234 235 236 236 236 237 236 235 236 236 241 242 229 222 230 234 236 239 241 244 247 249 250 252 255 258 261
211 212 211 211 210 211 211 210 209 209 209 210 211 213 214 213 214 215 215 215 216 215 211 208 207 208 208 209 210 209 209 210 211 212 213 214 215 215 216 216 217 218 218 218 219 219 220 221 221 221 222 223 224 225 226 226 227 228 230 231 233 235 236 237 237 237 237 237 236 238 237 241 243 235 227 230 232 236 239 241 244 247 249 252 254 257 260 262
208 212 212 211 211 211 211 211 210 209 209 209 211 213 214 214 214 215 214 215 217 216 212 210 210 210 210 210 212 212 211 211 212 214 215 216 217 217 218 219 219 219 219 219 220 220 221 222 223 223 223 224 225 226 227 228 229 230 231 232 234 235 237 237 238 238 238 238 238 239 238 240 243 242 237 236 236 239 242 244 245 247 249 252 255 257 260 261
207 210 212 211 211 210 210 210 209 208 208 209 210 212 214 215 215 214 213 215 217 216 213 212 212 212 212 212 213 213 213 214 215 216 217 217 219 218 219 220 221 222 223 223 224 224 224 224 225 226 226 226 227 228 229 230 231 232 233 234 235 237 238 238 238 239 239 240 240 241 240 240 243 245 244 243 242 243 245 247 249 250 252 253 256 258 259 261
209 209 210 209 209 210 209 209 209 208 208 209 210 212 213 215 214 214 215 215 216 216 214 213 213 213 214 215 215 216 215 215 216 217 219 219 220 220 220 220 221 222 223 224 225 225 226 227 227 229 230 229 230 230 231 231 232 233 233 234 235 236 238 239 239 240 240 241 242 242 241 241 243 246 247 248 247 246 246 248 250 252 255 257 258 260 262 263
210 209 208 208 209 209 209 209 209 208 208 209 210 212 213 214 213 213 215 216 217 217 216 214 214 214 215 216 216 218 218 218 218 218 220 220 221 222 222 223 224 224 224 225 225 225 225 226 227 229 231 231 232 232 231 232 232 233 233 234 235 237 239 241 242 242 242 242 242 242 242 243 245 247 249 249 248 247 247 248 250 254 257 260 262 263 265 267
210 209 207 208 209 210 210 209 209 209 209 209 210 212 213 214 215 214 215 216 217 218 218 216 215 215 216 216 217 218 219 220 221 220 221 221 222 222 224 225 227 227 228 228 229 228 228 228 227 228 230 231 232 233 233 233 234 235 235 236 238 240 241 243 244 243 244 243 241 241 242 243 244 247 248 250 251 250 250 250 252 254 257 259 262 264 265 267
209 210 209 209 210 211 211 211 210 209 210 210 211 213 213 214 216 215 216 217 217 219 220 218 217 216 216 217 218 219 220 221 222 222 222 223 223 223 223 225 226 228 229 230 231 232 232 232 231 230 231 231 231 232 232 232 234 235 236 237 238 240 240 241 243 243 243 244 243 242 243 243 243 246 248 251 254 256 257 257 257 257 258 259 261 262 263 264
210 210 210 210 210 211 212 212 213 212 211 211 212 214 214 215 216 215 216 217 218 219 220 220 220 219 219 219 219 220 221 221 223 223 223 223 224 224 224 225 226 228 229 229 231 232 232 233 233 231 232 232 232 232 232 232 233 234 236 237 238 240 240 241 244 245 246 248 246 244 243 243 243 245 249 252 256 259 262 263 264 263 263 262 261 261 262 264
214 212 212 212 211 211 212 212 213 214 214 214 214 215 215 216 218 217 217 218 219 220 221 220 220 221 221 221 221 222 222 222 223 225 225 225 225 224 225 227 227 228 230 230 231 232 233 234 235 234 234 234 234 234 234 235 236 237 238 239 240 243 244 245 247 248 249 250 249 247 245 243 243 247 250 253 257 261 263 265 267 268 267 267 266 265 266 267
215 215 214 215 215 215 214 214 214 215 216 217 217 217 217 217 218 219 219 220 220 221 222 221 220 221 222 222 222 223 224 224 225 225 226 227 227 227 227 228 229 230 231 232 232 233 233 234 236 236 236 236 236 237 238 239 239 240 241 243 244 246 248 249 249 249 250 251 251 250 247 244 245 249 251 253 256 260 263 266 267 268 269 270 271 272 272 272
214 217 217 217 218 219 218 218 217 218 219 219 218 219 219 219 220 220 220 221 222 223 223 223 222 222 223 223 224 224 225 225 225 226 227 227 229 230 229 230 231 232 233 234 234 235 236 237 237 239 239 239 239 240 239 240 240 240 241 242 244 245 246 247 248 248 249 250 251 253 251 246 245 249 253 256 258 260 263 265 265 267 269 271 274 275 276 277
212 216 220 220 221 221 222 221 221 222 222 221 220 221 221 221 222 222 221 221 222 223 224 224 223 223 223 224 225 225 226 226 226 226 227 227 228 230 231 231 232 233 234 235 236 237 238 239 239 240 241 241 241 241 240 241 241 241 241 242 243 245 245 247 248 248 249 250 252 255 255 250 249 253 255 259 262 262 263 264 266 268 270 273 274 275 276 277
210 214 217 220 221 221 222 222 222 223 223 223 223 223 223 223 224 224 224 223 223 224 225 225 225 224 224 225 225 226 227 227 228 228 228 228 228 229 230 230 231 233 234 234 235 236 237 238 239 240 240 241 241 241 241 241 242 242 243 244 245 246 247 248 249 249 250 251 253 257 258 255 254 257 257 260 262 264 265 267 270 272 273 273 273 273 274 275
210 213 216 219 221 220 221 224 225 224 225 225 225 224 224 224 224 225 226 225 224 224 225 226 226 226 225 226 226 227 228 228 229 228 228 229 229 229 231 232 231 233 234 235 236 237 238 238 239 239 239 238 239 239 239 240 242 244 244 245 246 247 248 248 250 251 252 254 255 257 257 256 258 261 261 262 264 265 268 270 271 272 273 273 273 274 274 273
208 213 217 218 219 219 221 224 226 226 226 226 226 225 225 224 225 226 227 227 226 226 226 227 227 227 226 227 227 227 228 229 230 230 229 229 229 229 231 233 233 233 235 236 236 237 238 238 238 239 239 239 241 243 245 247 249 249 248 249 249 250 251 252 253 254 254 255 256 257 257 258 260 263 263 263 264 266 268 270 270 271 271 271 272 272 272 273
210 212 216 219 219 220 220 222 223 224 224 224 225 226 227 227 227 227 228 229 229 228 227 227 228 228 227 227 227 228 228 229 230 231 231 231 231 231 232 233 234 234 234 235 236 236 237 237 238 239 240 242 244 246 248 249 250 250 251 252 252 253 254 255 254 254 255 256 256 256 258 259 258 260 261 262 264 265 266 267 269 269 270 269 269 270 271 272
211 212 214 217 220 221 221 219 219 220 220 221 223 224 226 228 229 229 229 230 230 230 229 228 228 228 228 228 228 229 229 230 230 231 231 232 232 233 232 233 234 234 234 234 235 236 237 239 239 240 242 243 244 244 244 244 244 245 245 246 247 247 248 248 250 252 253 254 255 257 258 258 258 259 261 263 264 265 266 267 267 268 268 268 269 270 271 271
210 211 213 215 217 219 221 221 220 220 221 221 221 221 222 223 225 227 228 229 230 230 230 229 228 228 228 228 229 229 230 230 231 230 230 231 232 233 233 233 233 234 234 234 235 237 239 240 241 243 243 244 244 245 245 245 245 245 245 245 245 245 246 247 250 253 254 256 258 260 260 259 259 260 262 262 264 265 267 267 267 267 268 269 271 271 271 271
211 210 211 213 215 217 219 221 223 223 222 222 223 222 221 220 222 224 225 227 229 230 230 229 227 227 228 228 229 229 230 230 231 231 230 231 231 232 233 233 233 234 234 234 235 237 239 241 242 243 244 244 244 245 246 246 247 246 246 247 247 247 249 251 254 256 257 258 260 260 259 259 260 260 262 262 262 264 265 266 267 268 269 271 271 271 271 272
215 213 211 211 213 214 214 216 219 222 222 223 225 226 225 224 223 222 223 224 226 228 228 228 226 227 228 228 228 229 230 230 230 231 231 231 232 232 233 233 234 235 235 236 236 236 238 240 241 242 243 243 243 245 246 247 247 247 246 246 246 248 251 254 256 257 256 257 258 258 258 259 261 261 261 261 262 262 263 264 265 267 268 268 269 270 271 272
219 218 216 213 213 212 211 211 214 217 220 223 225 227 228 228 225 224 223 223 224 225 226 227 227 228 228 228 227 228 229 230 230 231 231 231 232 232 233 233 233 234 235 236 237 238 239 240 240 241 243 243 243 245 245 246 247 247 245 246 248 251 254 256 257 256 256 256 258 258 258 260 262 262 261 261 261 262 262 263 264 264 265 266 268 269 270 271
222 223 221 219 217 215 212 210 210 213 218 224 226 227 228 229 230 230 227 224 222 223 225 226 227 228 229 228 227 228 230 231 231 231 232 232 232 232 232 233 233 233 234 234 236 238 239 240 240 241 243 244 243 244 245 246 246 246 246 248 251 254 255 256 256 255 256 257 258 259 260 262 261 260 261 261 262 263 264 264 265 265 266 266 267 268 268 270
Height
5706 5709 5712 5715 5718 5721 5724 5726 5729 5731 5733 5736 5739 5743 5745 5747 5749 5751 5752 5753 5755 5757 5760 5763 5766 5770 5775 5779 5784 5788 5792 5796 5801 5805 5807 5809 5811 5815 5818 5821 5824 5828 5831 5834 5837 5839 5842 5844 5847 5849 5851 5854 5856 5858 5860 5861 5863 5864 5865 5866 5868 5869 5870 5872 5873 5874 5874 5875 5875 5876 5877 5878 5878 5879 5879 5880 5880 5881 5882 5882 5883 5883 5884 5886 5886 5886 5887 5887
5703 5706 5709 5713 5716 5718 5721 5724 5726 5729 5731 5734 5738 5741 5743 5745 5747 5749 5750 5751 5753 5756 5759 5762 5766 5769 5774 5779 5783 5788 5791 5795 5799 5803 5805 5808 5811 5814 5817 5820 5823 5827 5830 5834 5836 5839 5841 5843 5846 5848 5850 5853 5855 5857 5859 5861 5862 5864 5865 5866 5868 5869 5870 5871 5872 5873 5874 5875 5875 5876 5876 5877 5878 5879 5879 5879 5880 5881 5881 5882 5882 5883 5884 5885 5886 5886 5886 5886
5701 5704 5707 5710 5713 5716 5719 5721 5724 5727 5729 5732 5736 5739 5741 5744 5746 5747 5749 5751 5752 5755 5758 5762 5765 5769 5773 5778 5782 5787 5791 5794 5798 5801 5804 5807 5811 5813 5816 5819 5822 5825 5829 5832 5836 5838 5840 5842 5845 5847 5850 5852 5854 5856 5858 5860 5862 5863 5864 5866 5867 5868 5869 5870 5871 5873 5874 5874 5875 5876 5876 5877 5878 5878 5879 5879 5880 5880 5881 5881 5882 5882 5883 5884 5885 5886 5886 5886
5698 5701 5705 5708 5710 5713 5716 5719 5721 5725 5728 5731 5734 5737 5740 5742 5744 5746 5748 5750 5751 5754 5758 5762 5765 5769 5773 5777 5781 5786 5789 5794 5797 5800 5803 5806 5809 5813 5815 5818 5821 5825 5828 5831 5834 5837 5839 5841 5843 5846 5849 5851 5853 5855 5857 5859 5861 5863 5864 5865 5866 5867 5868 5870 5871 5872 5873 5874 5874 5875 5876 5877 5877 5878 5878 5879 5880 5880 5880 5881 5881 5882 5883 5884 5885 5885 5885 5886
5696 5699 5702 5705 5708 5710 5713 5717 5720 5723 5726 5729 5732 5735 5738 5741 5743 5745 5748 5749 5751 5754 5757 5761 5765 5769 5773 5776 5780 5784 5788 5793 5796 5799 5802 5805 5808 5811 5814 5817 5820 5823 5827 5830 5833 5835 5838 5840 5843 5845 5848 5850 5853 5855 5857 5858 5860 5862 5863 5864 5866 5866 5868 5869 5870 5871 5872 5873 5874 5875 5876 5876 5877 5877 5878 5878 5879 5880 5880 5880 5881 5882 5883 5883 5884 5885 5885 5885
5693 5697 5700 5703 5706 5708 5711 5714 5717 5721 5724 5727 5731 5734 5737 5739 5742 5745 5747 5748 5750 5753 5756 5761 5765 5768 5772 5776 5779 5783 5788 5791 5795 5799 5802 5804 5808 5811 5813 5816 5819 5822 5825 5829 5832 5834 5836 5839 5842 5844 5847 5849 5852 5854 5856 5858 5859 5861 5862 5864 5865 5866 5867 5868 5869 5870 5871 5873 5873 5874 5875 5876 5877 5877 5877 5878 5879 5879 5879 5880 5881 5882 5883 5883 5884 5884 5885 5885
5691 5694 5697 5700 5703 5706 5709 5712 5715 5719 5722 5725 5729 5732 5735 5738 5741 5744 5746 5748 5749 5752 5756 5760 5764 5768 5772 5776 5779 5783 5787 5790 5793 5798 5801 5804 5807 5810 5813 5815 5818 5821 5824 5827 5831 5834 5836 5838 5841 5843 5845 5848 5850 5852 5855 5857 5858 5860 5861 5863 5864 5865 5866 5867 5868 5869 5870 5872 5873 5874 5875 5876 5876 5877 5877 5877 5878 5878 5879 5880 5881 5882 5882 5883 5883 5884 5884 5884
5688 5692 5695 5698 5701 5704 5706 5710 5713 5716 5720 5723 5727 5730 5734 5737 5740 5743 5745 5747 5749 5751 5755 5759 5763 5767 5771 5775 5779 5783 5786 5789 5793 5797 5800 5803 5806 5809 5812 5815 5817 5820 5823 5826 5829 5832 5835 5837 5840 5842 5844 5846 5849 5851 5853 5855 5857 5858 5860 5862 5863 5864 5865 5866 5867 5868 5869 5871 5872 5873 5874 5875 5875 5876 5876 5877 5877 5878 5879 5879 5880 5881 5882 5882 5883 5883 5884 5884
5686 5689 5693 5696 5699 5701 5704 5707 5711 5714 5718 5721 5725 5728 5732 5735 5738 5741 5744 5746 5748 5750 5753 5757 5762 5766 5770 5774 5778 5782 5785 5788 5792 5795 5799 5802 5805 5808 5811 5814 5817 5819 5822 5825 5828 5831 5833 5836 5838 5841 5843 5846 5848 5850 5852 5854 5856 5857 5859 5860 5862 5863 5864 5865 5866 5867 5868 5870 5871 5872 5873 5874 5874 5875 5876 5876 5877 5877 5878 5879 5880 5880 5881 5882 5882 5883 5883 5883
5683 5686 5690 5693 5696 5699 5702 5705 5709 5712 5715 5719 5722 5726 5729 5733 5736 5740 5743 5745 5747 5750 5752 5756 5760 5765 5769 5773 5777 5780 5783 5787 5791 5794 5798 5801 5804 5807 5810 5813 5816 5818 5821 5823 5826 5828 5831 5834 5836 5839 5842 5844 5846 5848 5850 5852 5854 5855 5857 5859 5861 5862 5863 5863 5865 5866 5868 5869 5870 5871 5872 5873 5874 5874 5875 5875 5876 5876 5877 5878 5879 5880 5880 5881 5882 5882 5882 5883
5680 5684 5688 5691 5694 5697 5701 5704 5707 5710 5713 5717 5720 5724 5727 5730 5734 5738 5741 5744 5746 5749 5752 5755 5759 5763 5767 5772 5776 5779 5782 5785 5789 5792 5796 5799 5802 5805 5808 5811 5814 5817 5820 5822 5824 5826 5829 5832 5835 5838 5840 5842 5845 5847 5849 5851 5852 5854 5855 5857 5859 5860 5861 5862 5863 5865 5867 5868 5869 5870 5871 5872 5873 5873 5874 5875 5875 5876 5877 5878 5879 5879 5880 5881 5881 5881 5882 5882
5677 5681 5685 5689 5692 5696 5699 5702 5705 5708 5711 5715 5718 5722 5725 5728 5732 5736 5739 5743 5745 5748 5751 5754 5758 5762 5766 5770 5773 5776 5780 5783 5787 5790 5794 5798 5801 5804 5807 5810 5812 5815 5818 5820 5823 5825 5827 5830 5833 5836 5838 5840 5842 5844 5847 5849 5851 5852 5854 5855 5857 5858 5859 5861 5862 5863 5865 5867 5868 5869 5870 5871 5872 5872 5873 5874 5874 5875 5876 5877 5878 5878 5879 5880 5880 5881 5881 5882
5675 5679 5683 5686 5690 5694 5697 5700 5703 5706 5710 5713 5716 5719 5722 5726 5730 5734 5737 5741 5744 5747 5750 5753 5756 5760 5765 5769 5771 5775 5778 5781 5785 5788 5792 5796 5799 5802 5805 5808 5811 5814 5816 5819 5821 5824 5826 5829 5831 5834 5836 5838 5840 5842 5845 5847 5849 5850 5852 5853 5855 5856 5858 5860 5861 5862 5863 5865 5866 5867 5869 5870 5871 5871 5872 5873 5874 5874 5875 5876 5876 5877 5878 5879 5880 5880 5881 5881
5672 5677 5681 5684 5688 5691 5695 5698 5701 5704 5708 5711 5714 5717 5720 5724 5728 5731 5735 5739 5742 5745 5748 5751 5755 5759 5763 5767 5769 5773 5777 5780 5783 5786 5790 5794 5797 5801 5803 5806 5809 5812 5814 5817 5820 5822 5825 5827 5830 5832 5834 5836 5838 5840 5843 5845 5846 5848 5850 5851 5853 5855 5857 5858 5859 5861 5862 5863 5864 5866 5867 5869 5870 5871 5871 5872 5873 5873 5874 5875 5876 5876 5877 5878 5879 5880 5880 5880
5669 5674 5678 5682 5685 5689 5692 5696 5699 5702 5706 5709 5712 5715 5718 5722 5725 5729 5732 5736 5740 5743 5746 5750 5753 5757 5761 5765 5768 5772 5776 5779 5782 5784 5788 5791 5795 5798 5801 5804 5807 5810 5813 5815 5818 5821 5823 5826 5828 5830 5832 5834 5837 5839 5841 5843 5844 5846 5848 5849 5851 5853 5855 5856 5857 5859 5860 5861 5863 5864 5866 5867 5868 5869 5869 5870 5871 5872 5873 5874 5874 5875 5876 5877 5878 5879 5879 5879
5667 5671 5675 5679 5683 5687 5690 5693 5696 5700 5703 5707 5710 5713 5716 5719 5723 5726 5730 5733 5737 5741 5745 5748 5751 5755 5759 5763 5766 5771 5774 5777 5780 5783 5786 5789 5792 5796 5799 5802 5805 5808 5810 5813 5816 5819 5821 5823 5826 5828 5830 5833 5835 5837 5839 5841 5842 5844 5846 5848 5850 5851 5853 5854 5855 5857 5858 5860 5861 5863 5864 5865 5867 5868 5868 5869 5870 5871 5872 5873 5873 5874 5875 5876 5877 5877 5878 5878
5663 5668 5672 5676 5680 5684 5687 5690 5694 5697 5700 5704 5708 5711 5714 5717 5720 5724 5727 5730 5734 5738 5742 5746 5749 5753 5757 5761 5765 5769 5773 5776 5779 5782 5784 5787 5790 5794 5797 5800 5803 5806 5808 5811 5814 5816 5819 5821 5824 5826 5829 5831 5833 5835 5837 5839 5841 5843 5845 5846 5848 5849 5851 5852 5853 5855 5856 5858 5859 5861 5862 5864 5865 5866 5866 5868 5868 5869 5871 5871 5872 5873 5874 5874 5875 5876 5876 5877
5660 5665 5669 5673 5677 5681 5685 5688 5691 5694 5697 5701 5704 5708 5711 5714 5718 5721 5725 5728 5732 5736 5739 5743 5747 5751 5754 5759 5764 5767 5771 5774 5777 5780 5783 5786 5789 5792 5795 5798 5801 5804 5806 5809 5812 5814 5817 5819 5822 5824 5826 5829 5831 5833 5836 5838 5840 5841 5843 5844 5846 5847 5848 5850 5851 5853 5854 5856 5857 5859 5861 5862 5863 5864 5865 5866 5867 5868 5869 5870 5871 5872 5873 5873 5873 5874 5875 5875
5657 5661 5666 5670 5674 5678 5682 5685 5688 5691 5694 5698 5702 5706 5709 5712 5715 5719 5723 5726 5730 5733 5737 5741 5745 5749 5753 5757 5761 5765 5768 5771 5774 5778 5781 5784 5787 5790 5793 5795 5799 5801 5804 5807 5810 5812 5815 5817 5820 5822 5825 5828 5830 5832 5834 5836 5837 5838 5840 5841 5843 5844 5846 5847 5849 5851 5852 5854 5855 5857 5858 5859 5860 5862 5863 5864 5865 5866 5867 5868 5870 5870 5871 5871 5872 5872 5873 5874
5653 5658 5662 5667 5671 5675 5679 5682 5685 5689 5692 5696 5699 5703 5707 5710 5713 5716 5721 5724 5728 5732 5736 5741 5744 5748 5752 5756 5759 5762 5766 5769 5772 5775 5779 5782 5785 5788 5790 5793 5796 5799 5802 5805 5808 5811 5813 5816 5819 5822 5825 5827 5828 5829 5831 5833 5834 5835 5837 5838 5840 5841 5843 5845 5846 5848 5849 5851 5853 5854 5856 5857 5858 5860 5861 5862 5863 5865 5866 5867 5868 5868 5869 5870 5870 5871 5872 5872
5649 5654 5659 5663 5668 5672 5675 5679 5683 5686 5690 5693 5697 5701 5706 5710 5713 5716 5720 5723 5726 5729 5734 5738 5741 5745 5749 5753 5756 5760 5763 5767 5770 5773 5776 5779 5782 5785 5788 5791 5794 5797 5800 5802 5805 5808 5810 5814 5818 5820 5821 5822 5823 5825 5828 5830 5831 5833 5835 5836 5838 5839 5841 5842 5844 5845 5847 5849 5850 5852 5853 5855 5856 5857 5858 5859 5862 5864 5864 5864 5865 5866 5867 5868 5869 5870 5870 5870
5646 5650 5655 5660 5664 5668 5672 5676 5679 5683 5687 5691 5695 5700 5704 5708 5712 5715 5718 5721 5723 5726 5730 5734 5738 5741 5746 5750 5754 5757 5761 5764 5767 5771 5774 5777 5780 5783 5786 5790 5793 5795 5798 5801 5804 5806 5809 5813 5814 5815 5816 5818 5821 5823 5826 5827 5829 5831 5832 5834 5836 5837 5839 5840 5841 5843 5844 5846 5848 5849 5851 5853 5854 5855 5856 5858 5860 5862 5862 5862 5864 5864 5865 5866 5867 5868 5867 5868
5642 5647 5651 5656 5660 5664 5668 5672 5676 5680 5685 5689 5693 5697 5701 5704 5708 5711 5713 5716 5719 5722 5726 5730 5734 5738 5743 5747 5751 5755 5758 5762 5765 5769 5772 5775 5778 5781 5785 5788 5790 5793 5796 5799 5801 5804 5808 5810 5810 5812 5815 5817 5819 5822 5824 5825 5827 5829 5830 5832 5833 5835 5836 5838 5839 5840 5842 5843 5845 5846 5848 5851 5852 5852 5854 5856 5858 5860 5859 5860 5862 5862 5863 5864 5865 5865 5866 5866
5639 5643 5647 5652 5656 5660 5665 5669 5673 5677 5682 5686 5690 5693 5697 5701 5704 5706 5709 5712 5714 5718 5722 5727 5731 5735 5739 5743 5748 5752 5756 5760 5763 5766 5770 5773 5776 5779 5782 5785 5787 5791 5793 5796 5799 5801 5804 5805 5807 5810 5813 5815 5817 5819 5821 5823 5825 5826 5828 5829 5831 5832 5834 5835 5837 5838 5839 5841 5842 5844 5846 5849 5850 5851 5852 5854 5855 5857 5857 5858 5859 5860 5861 5862 5862 5863 5863 5863
5635 5639 5644 5649 5653 5657 5662 5666 5670 5674 5679 5683 5686 5690 5694 5697 5700 5703 5706 5708 5710 5714 5717 5722 5727 5732 5736 5741 5745 5749 5753 5757 5760 5763 5766 5769 5773 5776 5779 5782 5785 5788 5791 5793 5795 5797 5799 5801 5805 5808 5810 5812 5814 5816 5818 5820 5822 5823 5825 5827 5828 5830 5831 5833 5834 5835 5837 5838 5840 5842 5842 5845 5848 5848 5850 5852 5853 5854 5854 5855 5857 5858 5859 5859 5860 5860 5860 5860
5632 5636 5641 5645 5650 5654 5659 5663 5667 5671 5676 5679 5683 5687 5691 5694 5696 5699 5702 5704 5705 5709 5714 5719 5723 5728 5733 5738 5741 5745 5749 5753 5756 5760 5763 5766 5769 5772 5775 5779 5782 5785 5787 5789 5791 5793 5796 5799 5802 5804 5806 5809 5811 5813 5815 5817 5819 5820 5822 5824 5825 5827 5828 5830 5831 5832 5834 5835 5837 5839 5839 5842 5845 5847 5848 5849 5850 5851 5852 5853 5855 5856 5856 5856 5857 5857 5857 5857
5628 5632 5637 5642 5647 5651 5656 5660 5664 5668 5673 5676 5680 5684 5687 5690 5692 5695 5699 5699 5700 5706 5711 5715 5720 5725 5731 5735 5739 5743 5746 5750 5754 5757 5760 5763 5766 5769 5772 5776 5779 5781 5783 5785 5788 5792 5794 5797 5799 5801 5804 5806 5808 5810 5812 5814 5816 5817 5819 5821 5822 5823 5825 5826 5828 5829 5831 5832 5834 5836 5836 5838 5842 5845 5846 5847 5848 5848 5850 5851 5852 5853 5853 5854 5854 5855 5855 5854
5624 5628 5634 5639 5644 5647 5652 5656 5661 5666 5669 5672 5676 5680 5682 5685 5688 5692 5694 5692 5695 5703 5708 5711 5717 5723 5727 5731 5735 5739 5743 5748 5752 5754 5757 5761 5763 5766 5770 5773 5775 5778 5780 5783 5787 5790 5792 5794 5796 5799 5801 5804 5806 5808 5809 5811 5812 5814 5816 5817 5818 5820 5821 5823 5825 5826 5828 5829 5831 5833 5834 5834 5838 5843 5844 5844 5845 5846 5847 5849 5849 5850 5851 5852 5852 5852 5852 5851
5620 5625 5630 5635 5639 5643 5647 5653 5657 5661 5664 5668 5672 5675 5678 5680 5683 5686 5687 5686 5691 5699 5705 5709 5714 5718 5723 5728 5732 5736 5741 5745 5748 5751 5755 5758 5760 5764 5767 5770 5772 5774 5777 5780 5783 5786 5788 5791 5793 5795 5798 5800 5802 5804 5806 5808 5809 5811 5812 5813 5815 5816 5818 5820 5821 5823 5824 5826 5828 5831 5832 5831 5834 5840 5842 5841 5843 5844 5845 5846 5846 5848 5849 5849 5849 5849 5849 5849
5617 5621 5626 5631 5635 5639 5644 5648 5652 5655 5659 5664 5667 5670 5673 5675 5678 5679 5680 5683 5689 5697 5703 5707 5711 5715 5720 5724 5728 5733 5737 5741 5745 5748 5750 5753 5757 5761 5763 5766 5769 5771 5774 5777 5779 5782 5784 5787 5789 5791 5794 5796 5798 5799 5802 5804 5805 5807 5808 5810 5812 5813 5815 5816 5818 5820 5821 5822 5825 5827 5829 5829 5829 5836 5839 5839 5841 5842 5842 5843 5844 5845 5845 5845 5845 5845 5845 5846
5613 5618 5622 5627 5631 5636 5640 5644 5647 5651 5655 5658 5662 5665 5667 5670 5673 5674 5677 5683 5689 5694 5699 5704 5708 5713 5717 5722 5726 5730 5733 5737 5741 5743 5746 5750 5753 5756 5759 5761 5764 5767 5771 5773 5776 5779 5781 5783 5785 5787 5790 5792 5794 5796 5798 5800 5802 5804 5805 5807 5809 5810 5811 5813 5815 5817 5817 5819 5822 5824 5826 5826 5825 5831 5837 5837 5838 5839 5839 5841 5842 5842 5841 5841 5842 5842 5842 5842
5610 5614 5618 5622 5627 5631 5635 5639 5642 5646 5649 5653 5656 5659 5662 5664 5666 5669 5677 5683 5684 5688 5696 5702 5706 5711 5715 5720 5723 5726 5730 5733 5737 5739 5743 5747 5749 5753 5756 5759 5762 5764 5767 5770 5773 5776 5778 5780 5782 5784 5786 5788 5791 5793 5795 5797 5799 5800 5802 5804 5805 5806 5808 5809 5811 5813 5814 5816 5818 5820 5823 5822 5822 5827 5833 5833 5835 5836 5836 5838 5838 5838 5838 5838 5838 5839 5839 5839
5605 5610 5614 5617 5622 5626 5629 5633 5637 5641 5644 5648 5651 5654 5657 5659 5662 5669 5675 5677 5680 5687 5695 5699 5704 5708 5712 5715 5717 5721 5726 5730 5734 5736 5739 5743 5746 5749 5752 5755 5759 5762 5766 5769 5771 5773 5776 5777 5779 5781 5784 5786 5788 5790 5792 5794 5796 5797 5799 5801 5802 5803 5804 5805 5807 5809 5811 5812 5814 5816 5819 5819 5820 5824 5827 5829 5832 5834 5833 5834 5834 5834 5834 5834 5835 5835 5835 5835
5601 5605 5608 5612 5616 5620 5624 5628 5632 5636 5639 5642 5646 5649 5652 5654 5660 5667 5671 5673 5677 5683 5690 5695 5699 5703 5706 5710 5714 5718 5721 5725 5729 5732 5735 5738 5741 5744 5748 5751 5755 5758 5762 5765 5767 5770 5773 5775 5778 5780 5781 5784 5786 5787 5789 5791 5792 5793 5795 5796 5798 5799 5800 5802 5803 5805 5807 5809 5810 5813 5815 5816 5818 5821 5823 5826 5828 5830 5829 5829 5829 5829 5829 5830 5831 5830 5830 5830
5597 5600 5603 5607 5612 5616 5620 5623 5627 5631 5634 5637 5641 5643 5647 5652 5657 5662 5665 5669 5674 5679 5685 5690 5694 5698 5701 5705 5709 5713 5716 5720 5724 5727 5730 5734 5737 5742 5746 5749 5752 5755 5758 5760 5763 5766 5768 5771 5775 5776 5778 5780 5781 5783 5785 5786 5787 5788 5790 5792 5794 5796 5797 5799 5800 5802 5804 5805 5806 5809 5811 5813 5816 5817 5819 5821 5823 5825 5825 5825 5825 5825 5826 5826 5826 5826 5825 5824
5593 5596 5600 5604 5608 5612 5615 5619 5622 5626 5629 5632 5635 5639 5646 5650 5653 5657 5660 5665 5672 5676 5680 5684 5688 5692 5695 5699 5703 5707 5712 5716 5720 5723 5726 5730 5734 5737 5742 5746 5750 5753 5756 5759 5761 5763 5766 5768 5770 5772 5773 5775 5776 5778 5780 5781 5783 5784 5786 5789 5791 5793 5794 5795 5797 5798 5800 5800 5802 5805 5807 5810 5813 5813 5815 5817 5818 5819 5820 5821 5822 5822 5822 5822 5822 5821 5820 5820
5589 5592 5596 5600 5604 5608 5611 5615 5617 5621 5624 5627 5631 5637 5643 5645 5647 5654 5658 5663 5668 5670 5674 5679 5683 5687 5691 5695 5700 5704 5708 5711 5714 5718 5723 5726 5729 5733 5738 5742 5745 5749 5752 5755 5757 5760 5763 5764 5766 5768 5769 5770 5772 5773 5775 5777 5779 5781 5783 5785 5787 5788 5790 5791 5792 5794 5795 5796 5799 5802 5804 5807 5808 5809 5811 5813 5812 5813 5814 5815 5817 5817 5818 5818 5818 5817 5816 5816
5587 5590 5593 5596 5599 5603 5607 5610 5613 5617 5620 5623 5629 5635 5638 5639 5643 5650 5655 5659 5662 5665 5669 5675 5680 5685 5689 5692 5697 5700 5703 5706 5710 5714 5718 5721 5724 5730 5734 5738 5742 5745 5747 5750 5752 5754 5757 5758 5760 5763 5763 5765 5767 5768 5770 5772 5775 5777 5779 5780 5781 5783 5785 5788 5789 5790 5792 5793 5795 5798 5799 5801 5804 5806 5808 5809 5808 5809 5809 5810 5810 5811 5812 5812 5812 5811 5812 5812
5584 5587 5589 5591 5594 5597 5602 5605 5609 5613 5615 5620 5627 5631 5633 5637 5641 5646 5651 5654 5657 5660 5664 5670 5676 5680 5685 5690 5694 5697 5699 5703 5706 5710 5713 5717 5721 5726 5730 5734 5738 5740 5742 5745 5746 5748 5751 5752 5754 5756 5758 5760 5761 5763 5766 5769 5771 5773 5774 5776 5778 5780 5782 5784 5786 5787 5789 5790 5791 5792 5793 5796 5800 5803 5804 5805 5805 5805 5805 5805 5805 5805 5805 5805 5805 5806 5807 5808
5579 5583 5585 5588 5591 5594 5598 5601 5603 5607 5611 5618 5624 5627 5630 5634 5637 5641 5647 5650 5654 5656 5660 5666 5672 5675 5680 5685 5689 5692 5696 5700 5703 5707 5710 5714 5718 5722 5726 5730 5733 5736 5738 5739 5740 5742 5745 5747 5749 5751 5753 5754 5757 5761 5764 5766 5767 5769 5770 5772 5775 5777 5779 5780 5782 5783 5784 5785 5786 5786 5787 5792 5798 5799 5799 5801 5802 5801 5801 5801 5800 5800 5799 5798 5798 5800 5801 5801
5575 5578 5581 5585 5588 5591 5594 5596 5599 5604 5610 5616 5620 5623 5627 5631 5633 5637 5641 5646 5650 5653 5657 5662 5667 5671 5676 5679 5683 5687 5691 5694 5699 5702 5706 5710 5715 5719 5724 5727 5729 5731 5731 5732 5735 5738 5740 5742 5744 5745 5747 5752 5755 5758 5759 5760 5761 5763 5765 5768 5771 5772 5774 5774 5775 5777 5779 5779 5780 5781 5782 5788 5794 5795 5796 5796 5797 5797 5797 5796 5795 5795 5795 5794 5794 5794 5794 5795
5572 5575 5578 5582 5585 5588 5591 5593 5597 5603 5607 5612 5616 5620 5624 5627 5630 5633 5637 5641 5645 5649 5653 5657 5661 5666 5670 5674 5678 5682 5686 5690 5693 5697 5701 5707 5712 5716 5720 5723 5724 5725 5726 5728 5731 5734 5735 5736 5738 5739 5743 5748 5749 5750 5752 5754 5756 5758 5760 5764 5766 5766 5768 5768 5769 5772 5773 5773 5776 5777 5778 5783 5789 5792 5793 5792 5791 5792 5791 5790 5790 5791 5791 5790 5789 5789 5789 5789
5569 5572 5575 5579 5582 5585 5586 5589 5594 5599 5603 5608 5613 5617 5620 5624 5626 5628 5632 5637 5641 5644 5648 5651 5656 5661 5665 5669 5673 5676 5681 5685 5688 5693 5699 5703 5707 5711 5712 5714 5717 5718 5719 5721 5724 5727 5728 5729 5731 5734 5737 5740 5741 5743 5746 5747 5749 5752 5756 5760 5761 5761 5762 5762 5763 5765 5766 5768 5773 5774 5774 5779 5784 5787 5789 5788 5786 5785 5785 5785 5786 5785 5786 5785 5784 5784 5784 5784
5565 5569 5572 5575 5578 5580 5581 5585 5591 5596 5600 5604 5608 5612 5615 5619 5621 5624 5628 5632 5636 5640 5643 5647 5651 5656 5660 5665 5668 5672 5676 5679 5683 5689 5694 5697 5701 5704 5704 5707 5710 5711 5713 5717 5719 5721 5721 5722 5724 5726 5728 5730 5732 5735 5738 5742 5745 5749 5753 5755 5754 5755 5755 5755 5757 5759 5760 5765 5769 5768 5769 5776 5779 5780 5783 5782 5781 5780 5780 5780 5780 5779 5779 5779 5778 5778 5778 5778
5561 5564 5567 5570 5573 5576 5578 5582 5587 5591 5595 5599 5603 5607 5610 5613 5617 5621 5623 5627 5631 5635 5639 5642 5646 5651 5656 5659 5663 5667 5670 5674 5679 5683 5687 5690 5695 5697 5698 5700 5703 5706 5709 5711 5713 5713 5713 5714 5717 5718 5719 5723 5727 5731 5738 5743 5744 5745 5747 5749 5749 5750 5749 5751 5753 5752 5754 5761 5762 5760 5765 5772 5775 5774 5775 5775 5775 5775 5775 5775 5774 5773 5773 5773 5772 5771 5771 5771
5556 5559 5562 5565 5568 5571 5574 5578 5582 5585 5590 5595 5598 5602 5605 5609 5613 5617 5619 5622 5625 5629 5634 5637 5641 5645 5649 5653 5657 5661 5665 5670 5673 5676 5682 5686 5689 5691 5693 5694 5697 5700 5702 5703 5704 5704 5704 5706 5710 5712 5714 5720 5726 5731 5736 5738 5738 5738 5741 5743 5743 5744 5745 5746 5744 5743 5750 5754 5753 5754 5761 5766 5769 5769 5768 5769 5769 5769 5770 5769 5767 5767 5766 5765 5766 5765 5764 5765
5551 5555 5558 5560 5563 5566 5569 5573 5577 5581 5586 5590 5593 5597 5601 5604 5608 5611 5614 5617 5620 5624 5628 5632 5636 5639 5643 5648 5652 5656 5661 5664 5667 5671 5677 5681 5683 5685 5686 5688 5691 5693 5695 5696 5696 5697 5697 5700 5705 5709 5712 5718 5723 5724 5725 5726 5728 5730 5732 5733 5733 5734 5735 5735 5734 5740 5747 5744 5743 5752 5757 5756 5762 5765 5762 5763 5763 5762 5763 5763 5761 5761 5758 5757 5759 5759 5759 5758
5546 5551 5554 5556 5559 5562 5565 5570 5575 5578 5582 5584 5587 5591 5595 5598 5602 5606 5610 5613 5616 5619 5622 5626 5631 5635 5639 5644 5647 5651 5655 5657 5660 5665 5670 5673 5675 5677 5679 5682 5684 5685 5688 5689 5690 5692 5692 5696 5702 5705 5707 5713 5716 5715 5716 5719 5720 5722 5723 5724 5725 5726 5726 5726 5730 5738 5740 5733 5738 5750 5748 5745 5755 5760 5756 5757 5757 5755 5756 5756 5754 5753 5752 5751 5752 5752 5751 5751
5541 5544 5548 5551 5555 5559 5563 5567 5570 5573 5576 5579 5581 5584 5588 5593 5597 5602 5605 5608 5611 5614 5618 5622 5627 5631 5634 5637 5640 5644 5647 5650 5654 5659 5662 5665 5667 5669 5672 5674 5676 5679 5681 5682 5685 5687 5687 5692 5698 5699 5701 5706 5708 5707 5709 5712 5712 5714 5715 5716 5718 5718 5720 5723 5728 5733 5732 5727 5732 5741 5737 5737 5749 5753 5749 5750 5752 5750 5749 5748 5746 5745 5745 5745 5744 5743 5743 5743
5534 5537 5541 5545 5550 5554 5557 5560 5563 5567 5571 5573 5576 5579 5583 5588 5592 5596 5599 5603 5606 5610 5614 5618 5623 5625 5628 5630 5634 5638 5641 5645 5649 5652 5655 5657 5660 5663 5666 5668 5671 5674 5675 5677 5679 5680 5681 5687 5691 5692 5693 5696 5700 5701 5702 5703 5703 5705 5706 5708 5710 5712 5715 5719 5723 5726 5723 5719 5724 5730 5727 5731 5744 5746 5742 5743 5745 5743 5742 5741 5740 5738 5738 5737 5737 5737 5736 5736
5527 5530 5534 5539 5543 5547 5550 5554 5557 5560 5563 5567 5572 5577 5580 5584 5588 5592 5595 5598 5601 5605 5610 5614 5617 5619 5621 5624 5628 5633 5636 5639 5642 5645 5647 5650 5653 5657 5659 5661 5665 5668 5669 5672 5673 5674 5677 5681 5685 5685 5683 5687 5694 5695 5694 5696 5695 5693 5695 5700 5704 5708 5711 5714 5716 5716 5714 5713 5717 5718 5717 5727 5739 5737 5732 5735 5735 5733 5734 5734 5732 5731 5731 5731 5731 5732 5731 5730
5521 5524 5527 5532 5535 5539 5543 5547 5550 5553 5558 5565 5570 5574 5577 5581 5583 5584 5587 5592 5596 5601 5605 5607 5609 5612 5614 5618 5624 5629 5630 5633 5636 5638 5640 5643 5647 5650 5652 5655 5658 5661 5663 5665 5667 5669 5672 5675 5678 5679 5676 5681 5689 5687 5686 5688 5681 5678 5688 5699 5702 5704 5707 5706 5704 5705 5707 5708 5708 5708 5711 5722 5729 5724 5723 5726 5726 5724 5727 5727 5724 5724 5724 5724 5724 5725 5724 5724